Regional Weather Roundup
Issued by NWS Albany, NY

Home | Current Version | Previous Version | Graphics & Text | Print | Product List | Glossary Off
Versions: 1 2 3 4 5 6 7 8 9 10 11 12 13 14 15 16 17 18 19 20 21 22 23 24 25 26 27 28 29 30 31 32 33 34 35 36 37 38 39 40 41 42 43 44 45 46 47 48 49 50

000
ASUS41 KALY 271610
RWRALY

NEW YORK STATE HOURLY WEATHER ROUNDUP
NATIONAL WEATHER SERVICE ALBANY NY
1100 AM EST TUE JAN 27 2015

NOTE: "FAIR" INDICATES FEW OR NO CLOUDS BELOW 12,000 FEET WITH NO
SIGNIFICANT WEATHER AND/OR NO OBSTRUCTIONS TO VISIBILITY.

NYZ032-033-038>043-046>054-057>066-NYZ062>081-271700-
EAST


CITY           SKY/WX    TMP DP  RH WIND       PRES   REMARKS
ALBANY         LGT SNOW  13   7  77 N9        29.84F VSB 3/4 WCI   1
GLENS FALLS    LGT SNOW  13   6  74 NE12      29.83F VSB 1   WCI  -1
POUGHKEEPSIE   LGT SNOW  18  11  74 N12G22    29.75F VSB 1   WCI   5
NEWBURGH       LGT SNOW  18  14  86 N14       29.74S FOG     WCI   4
MONTGOMERY     LGT SNOW  21  11  65 N7        29.73S WCI  12
WHITE PLAINS   SNOW      18  13  80 NW24G36   29.64S VSB 1/2 WCI   0
ISLIP          LGT SNOW  22  17  81 N21G37    29.60R BLWGSNOWWCI   6
NEW YORK CITY  LGT SNOW  24  17  74 NW20G25   29.68S WCI  10
CENTRAL PARK   LGT SNOW  25  17  72 NW8G21    29.70S WCI  16
$$

NYZ005>009-017-018-044>046-055-056-271700-
CENTRAL


CITY           SKY/WX    TMP DP  RH WIND       PRES   REMARKS
FULTON         SUNNY     11   0  61 N15G21    29.96S WCI  -5
SYRACUSE       PTSUNNY    8  -1  66 W9        29.94S WCI  -5
ROME           MOSUNNY   11  -3  53 NW6       29.92F WCI   1
ELMIRA         MOSUNNY   17   9  70 NW8G20    29.88S WCI   7
BINGHAMTON     MOSUNNY   13   4  67 NW13      29.76S WCI  -2
MONTICELLO     CLOUDY    19   3  49 NW16G22   29.70S WCI   5
$$

NYZ026>034-041>043-271700-
NORTH


CITY           SKY/WX    TMP DP  RH WIND       PRES   REMARKS
WATERTOWN      SUNNY     11  -2  56 NE22      30.01S WCI  -8
FORT DRUM      NOT AVBL
MASSENA        SUNNY      8  -3  61 NE23      30.09F WCI -13
SARANAC LAKE   PTSUNNY    5  -8  55 NE10      29.82F WCI -10
PLATTSBURGH    CLOUDY     9  -5  53 N26G35    30.00F WCI -13
$$

NYZ001>004-010>016-019>021-271700-
WEST


CITY           SKY/WX    TMP DP  RH WIND       PRES   REMARKS
NIAGARA FALLS  LGT SNOW  16   9  74 NE10      30.03S WCI   4
BUFFALO        FLURRIES  16   8  71 N14       30.02R WCI   2
DUNKIRK        LGT SNOW  17  12  80 N10       30.02S WCI   5
JAMESTOWN      CLOUDY    14  10  85 N9        29.89S WCI   2
WELLSVILLE     PTSUNNY   12   7  80 N10       29.83S WCI  -1
ROCHESTER      LGT SNOW  14   7  73 N16       30.02S WCI  -2
PENN YAN       LGT SNOW  14   7  73 NW16G23   29.93R WCI  -2
$$

             KEY
       WCI = WIND CHILL INDEX
       VSB = VISIBILITY
       HX  = HEAT INDEX
$$



USA.gov is the U.S. government's official web portal to all federal, state and local government web resources and services.